Weather in Sosva

Russia / Sverdlovsk Oblast     59°10′27″N   61°50′57″E
temp.,
°C
wind,
m/s
gust,
m/s
humid.,
%
clouds,
%
prec.,
mm/h
press.,
hPa
HPBL,
m
26 july, mon
mon2623:00+13w3961100 0.0 1015422
02:00+12w3863100 0.0 1016332
05:00+11w2765100 0.0 1016237
08:00+15w3655100 0.0 1016405
11:00+19w4637100 0.0 10152612
14:00+18wnw464795 0.0 10141742
17:00+18wnw3548100 0.0 1014941
20:00+16sw236498 0.0 1013100
27 july, tue
tue2723:00+12wsw3108051 0.0 1012220
02:00+12sw398162 0.0 1011237
05:00+12sw41376100 0.0 1008429
08:00+12wsw41189100 0.4 1008667
11:00+18wnw684848 0.4 10071877
14:00+20wnw573557 0.0 10072525
17:00+17nw574595 0.0 10081782
20:00+14wnw485186 0.0 10091062
28 july, wed
wed2823:00+10wnw49695 0.0 1009693
02:00+6w269254 0.0 1009121
05:00+6wsw288990 0.0 1008223
08:00+8wnw1596100 0.7 1007364
11:00+8wnw269686 2.0 1008409
14:00+14nw365097 0.4 10081894
17:00+14wnw464156 0.5 10081916
20:00+13wnw3750100 0.0 1009851
29 july, thu
thu2923:00+9w3869100 0.1 1009316
02:00+6w267997 0.0 1009126
05:00+5wsw238691 0.0 100977
08:00+10w236694 0.0 1008426
11:00+13w2457100 0.0 10081239
14:00+16w265025 0.0 10071442
17:00+16sw0259100 0.0 1006609
20:00+14e2369100 0.0 100681
30 july, fri
fri3023:00+9se228521 0.0 100522
02:00+8sse119399 0.0 100510
05:00+8nne0095100 0.0 100510
08:00+13sse117480 0.0 1005192
11:00+20ssw125018 0.0 1005986
14:00+20sw235490 0.0 1004742
17:00+21ene1163100 0.3 1003395
20:00+17ene2393100 1.9 100359